TimeAKDT,TemperatureF,Dew PointF,Humidity,Sea Level PressureIn,VisibilityMPH,Wind Direction,Wind SpeedMPH,Gust SpeedMPH,PrecipitationIn,Events,Conditions,WindDirDegrees,DateUTC
12:16 AM,26.6,17.6,69,30.02,10.0,NNW,24.2,31.1,N/A,,Mostly Cloudy,340,2012-10-16 08:16:00
12:36 AM,26.6,19.4,74,30.02,10.0,NNW,19.6,29.9,N/A,,Overcast,340,2012-10-16 08:36:00
12:56 AM,26.6,19.4,74,30.03,10.0,NNW,18.4,27.6,N/A,,Overcast,330,2012-10-16 08:56:00
1:16 AM,26.6,17.6,69,30.03,10.0,NNW,19.6,27.6,N/A,,Overcast,340,2012-10-16 09:16:00
1:36 AM,26.6,15.8,64,30.03,10.0,NNW,20.7,25.3,N/A,,Mostly Cloudy,330,2012-10-16 09:36:00
1:56 AM,28.4,15.8,59,30.04,10.0,NNW,19.6,27.6,N/A,,Overcast,340,2012-10-16 09:56:00
2:16 AM,26.6,19.4,74,30.04,10.0,North,23.0,29.9,N/A,,Overcast,350,2012-10-16 10:16:00
2:36 AM,28.4,19.4,69,30.05,10.0,NNW,20.7,27.6,N/A,,Overcast,330,2012-10-16 10:36:00
2:56 AM,26.6,17.6,69,30.05,10.0,NNW,20.7,28.8,N/A,,Overcast,340,2012-10-16 10:56:00
3:16 AM,26.6,17.6,69,30.05,10.0,North,19.6,27.6,N/A,,Overcast,350,2012-10-16 11:16:00
3:36 AM,26.6,19.4,74,30.05,10.0,North,20.7,31.1,N/A,,Overcast,360,2012-10-16 11:36:00
3:56 AM,26.6,17.6,69,30.05,10.0,North,21.9,28.8,N/A,,Overcast,360,2012-10-16 11:56:00
4:16 AM,26.6,17.6,69,30.06,10.0,North,21.9,26.5,N/A,,Overcast,350,2012-10-16 12:16:00
4:36 AM,26.6,19.4,74,30.07,10.0,NNW,20.7,27.6,N/A,,Overcast,340,2012-10-16 12:36:00
4:56 AM,26.6,17.6,69,30.07,10.0,NNW,19.6,27.6,N/A,,Mostly Cloudy,340,2012-10-16 12:56:00
5:16 AM,-9999,-9999,N/A,30.06,10.0,North,26.5,-,N/A,,Mostly Cloudy,350,2012-10-16 13:16:00
5:36 AM,28.4,17.6,64,30.08,10.0,NNW,18.4,27.6,N/A,,Mostly Cloudy,340,2012-10-16 13:36:00
5:56 AM,26.6,19.4,74,30.08,10.0,North,25.3,-,N/A,,Overcast,350,2012-10-16 13:56:00
6:16 AM,26.6,19.4,74,30.09,10.0,NNW,18.4,23.0,N/A,,Overcast,340,2012-10-16 14:16:00
6:36 AM,26.6,19.4,74,30.09,10.0,NNW,20.7,28.8,N/A,,Overcast,340,2012-10-16 14:36:00
6:56 AM,26.6,17.6,69,30.09,10.0,North,23.0,27.6,N/A,,Mostly Cloudy,350,2012-10-16 14:56:00
7:16 AM,26.6,15.8,64,30.09,10.0,NNW,19.6,24.2,N/A,,Mostly Cloudy,340,2012-10-16 15:16:00
7:36 AM,26.6,17.6,69,30.10,10.0,North,17.3,25.3,N/A,,Mostly Cloudy,350,2012-10-16 15:36:00
7:56 AM,26.6,17.6,69,30.10,10.0,North,18.4,25.3,N/A,,Mostly Cloudy,350,2012-10-16 15:56:00
8:16 AM,26.6,17.6,69,30.11,10.0,NNW,17.3,21.9,N/A,,Mostly Cloudy,340,2012-10-16 16:16:00
8:36 AM,26.6,17.6,69,30.11,10.0,NNW,18.4,-,N/A,,Scattered Clouds,330,2012-10-16 16:36:00
8:56 AM,26.6,17.6,69,30.11,10.0,NNW,19.6,24.2,N/A,,Mostly Cloudy,340,2012-10-16 16:56:00
9:16 AM,26.6,17.6,69,30.12,10.0,North,19.6,23.0,N/A,,Mostly Cloudy,350,2012-10-16 17:16:00
9:36 AM,26.6,17.6,69,30.12,10.0,North,19.6,24.2,N/A,,Mostly Cloudy,350,2012-10-16 17:36:00
9:56 AM,26.6,17.6,69,30.13,10.0,NNW,15.0,-,N/A,,Mostly Cloudy,340,2012-10-16 17:56:00
10:16 AM,26.6,15.8,64,30.13,10.0,North,18.4,21.9,N/A,,Mostly Cloudy,350,2012-10-16 18:16:00
10:36 AM,26.6,17.6,69,30.13,10.0,North,18.4,24.2,N/A,,Partly Cloudy,350,2012-10-16 18:36:00
10:56 AM,26.6,17.6,69,30.14,10.0,NNW,17.3,23.0,N/A,,Mostly Cloudy,340,2012-10-16 18:56:00
11:16 AM,26.6,17.6,69,30.14,10.0,NNW,17.3,23.0,N/A,,Mostly Cloudy,340,2012-10-16 19:16:00
11:36 AM,26.6,17.6,69,30.15,10.0,NNW,17.3,24.2,N/A,,Mostly Cloudy,330,2012-10-16 19:36:00
11:56 AM,26.6,15.8,64,30.15,10.0,NNW,18.4,24.2,N/A,,Mostly Cloudy,330,2012-10-16 19:56:00
12:16 PM,26.6,15.8,64,30.16,10.0,NNW,17.3,-,N/A,,Mostly Cloudy,330,2012-10-16 20:16:00
12:36 PM,26.6,15.8,64,30.16,10.0,NNW,18.4,21.9,N/A,,Scattered Clouds,330,2012-10-16 20:36:00
12:56 PM,26.6,15.8,64,30.16,10.0,North,19.6,-,N/A,,Mostly Cloudy,350,2012-10-16 20:56:00
1:16 PM,26.6,15.8,64,30.17,10.0,NNW,17.3,20.7,N/A,,Mostly Cloudy,330,2012-10-16 21:16:00
1:56 PM,26.6,15.8,64,30.17,10.0,NNW,13.8,-,N/A,,Mostly Cloudy,340,2012-10-16 21:56:00
2:16 PM,26.6,15.8,64,30.18,10.0,NNW,15.0,23.0,N/A,,Mostly Cloudy,340,2012-10-16 22:16:00
2:36 PM,26.6,17.6,69,30.18,10.0,NNW,17.3,21.9,N/A,,Scattered Clouds,340,2012-10-16 22:36:00
2:56 PM,28.4,15.8,59,30.18,10.0,NNW,17.3,-,N/A,,Partly Cloudy,340,2012-10-16 22:56:00
3:16 PM,28.4,15.8,59,30.18,10.0,NNW,15.0,-,N/A,,Clear,330,2012-10-16 23:16:00
3:36 PM,28.4,15.8,59,30.19,10.0,NNW,15.0,-,N/A,,Clear,340,2012-10-16 23:36:00
3:56 PM,28.4,17.6,64,30.18,10.0,NNW,15.0,-,N/A,,Clear,330,2012-10-16 23:56:00
4:16 PM,28.4,15.8,59,30.18,10.0,NW,15.0,-,N/A,,Clear,320,2012-10-17 00:16:00
4:36 PM,28.4,15.8,59,30.18,10.0,NNW,15.0,-,N/A,,Clear,330,2012-10-17 00:36:00
4:56 PM,28.4,15.8,59,30.19,10.0,NNW,12.7,-,N/A,,Clear,340,2012-10-17 00:56:00
5:16 PM,28.4,15.8,59,30.19,10.0,NNW,13.8,-,N/A,,Clear,340,2012-10-17 01:16:00
5:36 PM,28.4,15.8,59,30.19,10.0,NNW,12.7,18.4,N/A,,Clear,340,2012-10-17 01:36:00
5:56 PM,28.4,14.0,55,30.20,10.0,NNW,11.5,19.6,N/A,,Clear,340,2012-10-17 01:56:00
6:16 PM,28.4,14.0,55,30.20,10.0,NW,12.7,17.3,N/A,,Partly Cloudy,320,2012-10-17 02:16:00
6:36 PM,26.6,14.0,59,30.20,10.0,NNW,15.0,-,N/A,,Partly Cloudy,330,2012-10-17 02:36:00
6:56 PM,26.6,12.2,55,30.21,10.0,NNW,11.5,-,N/A,,Scattered Clouds,330,2012-10-17 02:56:00
7:16 PM,26.6,14.0,59,30.21,10.0,NW,12.7,-,N/A,,Mostly Cloudy,310,2012-10-17 03:16:00
7:36 PM,26.6,14.0,59,30.21,10.0,NW,11.5,-,N/A,,Scattered Clouds,320,2012-10-17 03:36:00
7:56 PM,26.6,12.2,55,30.22,10.0,NW,11.5,-,N/A,,Mostly Cloudy,320,2012-10-17 03:56:00
8:16 PM,26.6,14.0,59,30.22,10.0,NNW,13.8,17.3,N/A,,Scattered Clouds,330,2012-10-17 04:16:00
8:36 PM,26.6,12.2,55,30.22,10.0,NNW,11.5,-,N/A,,Scattered Clouds,330,2012-10-17 04:36:00
8:56 PM,26.6,12.2,55,30.23,10.0,NW,11.5,17.3,N/A,,Partly Cloudy,320,2012-10-17 04:56:00
9:16 PM,26.6,14.0,59,30.23,10.0,NNW,11.5,-,N/A,,Scattered Clouds,330,2012-10-17 05:16:00
9:36 PM,26.6,14.0,59,30.23,10.0,North,12.7,-,N/A,,Scattered Clouds,350,2012-10-17 05:36:00
9:56 PM,26.6,14.0,59,30.24,10.0,NNW,10.4,-,N/A,,Scattered Clouds,340,2012-10-17 05:56:00
10:16 PM,26.6,15.8,64,30.24,10.0,NNW,11.5,-,N/A,,Scattered Clouds,340,2012-10-17 06:16:00
10:36 PM,26.6,15.8,64,30.25,10.0,North,10.4,-,N/A,,Scattered Clouds,350,2012-10-17 06:36:00
10:56 PM,26.6,14.0,59,30.25,10.0,NNW,10.4,-,N/A,,Scattered Clouds,330,2012-10-17 06:56:00
11:16 PM,26.6,15.8,64,30.25,10.0,NNW,9.2,-,N/A,,Mostly Cloudy,340,2012-10-17 07:16:00
11:36 PM,26.6,15.8,64,30.25,10.0,North,10.4,-,N/A,,Mostly Cloudy,350,2012-10-17 07:36:00
11:56 PM,26.6,15.8,64,30.26,10.0,North,6.9,-,N/A,,Scattered Clouds,350,2012-10-17 07:56:00